GFSCGP_sfc_temp_159.txt.gz
Temp
50 44 41 46 48 50 48 44 42 49 54 49 48 50 55 59 58 54 54 55 56 58 64 64 64 65 65 64 64 65 64 64 64 62 61 61 60 60 60 60 62 62 62 60
44 41 49 52 49 48 47 42 42 49 51 48 48 48 54 56 58 60 61 59 55 60 62 63 63 63 64 63 64 64 65 65 64 65 64 64 63 62 63 62 61 62 61 61
42 45 52 49 47 44 46 45 42 45 47 48 44 44 49 56 54 59 60 61 64 61 61 63 61 61 63 64 63 64 65 65 64 65 64 59 59 57 58 60 61 61 62 61
44 51 48 46 44 46 41 50 48 46 43 39 46 37 48 53 55 57 58 60 62 64 62 64 63 62 62 63 66 66 65 65 64 64 62 61 62 62 62 62 63 61 61 62
41 44 44 43 46 49 46 50 46 46 42 39 38 34 43 50 49 54 57 61 64 66 65 62 64 64 64 65 65 65 64 64 64 63 64 62 61 62 62 61 60 61 61 62
46 48 49 49 51 50 49 45 44 42 40 32 40 37 41 44 47 52 58 58 61 64 63 63 64 63 64 64 64 64 64 63 64 63 63 61 61 61 59 59 59 60 61 61
41 41 45 48 44 47 47 41 31 30 29 31 38 37 44 49 50 51 55 59 54 56 56 59 58 58 61 58 62 63 63 61 62 62 62 62 62 62 60 60 60 59 59 60
35 32 42 47 44 41 43 43 34 27 27 30 34 32 40 52 57 61 57 59 53 54 53 55 58 58 59 59 60 61 62 62 61 62 62 63 63 62 62 61 62 61 61 61
34 35 46 47 46 48 41 37 44 34 25 25 33 37 44 51 52 53 51 51 53 54 54 52 52 53 55 56 59 60 61 63 62 62 62 62 63 62 62 62 62 62 62 61
41 35 41 44 48 47 44 47 35 34 25 22 30 30 38 44 51 60 51 49 51 51 53 54 52 50 51 54 57 58 61 61 62 62 62 62 62 62 63 62 61 61 62 59
44 39 36 42 39 40 40 39 41 41 35 31 24 33 43 52 54 50 53 52 52 52 51 52 52 50 49 48 50 53 54 55 57 59 61 61 61 62 62 62 62 61 61 59
44 37 32 36 43 48 47 43 43 36 32 31 31 38 46 48 48 48 50 51 50 50 51 50 51 49 48 47 46 49 51 53 56 55 55 56 57 57 59 60 62 61 60 59
43 33 29 31 37 40 38 43 47 44 38 34 33 40 48 44 45 48 48 49 50 46 46 48 48 47 47 47 47 47 47 49 50 50 52 52 54 54 56 59 60 57 60 59
47 35 31 32 32 37 36 40 42 42 34 36 39 40 44 47 47 50 50 50 50 49 50 48 47 46 46 47 46 46 46 47 47 47 48 49 49 50 52 52 53 54 57 58
41 31 33 35 36 38 39 40 41 37 39 36 43 43 49 52 53 52 49 51 50 50 49 49 47 47 46 46 45 45 46 46 46 46 46 47 47 47 47 48 49 50 51 53
38 31 33 32 36 37 31 39 43 42 42 42 43 44 50 51 51 46 51 50 49 50 50 50 49 48 47 47 46 46 46 46 45 46 46 46 46 45 45 45 45 45 46 48
35 32 31 28 34 34 30 35 40 43 42 44 39 48 49 48 48 51 51 50 52 52 52 51 51 50 48 47 47 46 47 46 45 45 45 44 44 43 43 42 41 41 41 43
34 33 33 30 29 25 37 42 45 44 47 48 49 52 52 54 53 52 51 52 52 51 52 52 51 50 49 47 47 47 46 46 44 44 43 42 41 41 40 38 38 38 38 40
37 34 29 24 27 31 37 37 39 40 41 50 49 52 54 51 45 51 52 49 52 51 51 50 49 49 48 47 45 45 44 43 42 42 41 40 39 37 36 35 35 33 34 34
36 37 32 25 15 24 35 41 45 45 35 53 51 51 52 50 44 52 58 56 52 49 48 46 44 42 42 38 39 41 40 40 40 39 39 38 35 36 37 37 37 34 34 35
30 31 27 28 27 26 37 39 46 31 38 49 54 54 52 48 54 60 57 53 46 43 41 39 39 37 34 34 37 38 37 36 32 33 33 32 34 34 36 35 33 34 34 34
29 27 27 29 26 25 37 38 41 45 47 49 47 51 52 55 56 57 54 44 39 37 35 34 33 30 29 31 35 34 33 31 33 34 34 34 35 33 34 35 34 34 34 34
30 33 29 32 33 39 38 39 40 40 41 43 45 46 46 46 47 44 39 37 35 33 32 31 29 28 28 29 31 30 30 32 31 34 34 33 33 33 33 34 34 33 33 34
30 35 30 31 36 36 39 40 35 34 35 38 39 40 41 43 40 36 33 32 31 30 28 27 27 27 26 26 27 28 30 30 33 33 33 32 33 33 33 33 33 34 33 33
30 30 29 31 32 34 32 30 30 31 34 34 35 34 34 36 34 33 30 29 28 27 27 27 26 24 23 24 24 24 27 31 32 32 31 32 32 33 32 32 33 32 32 34
24 26 29 28 21 20 28 27 29 27 30 30 30 34 33 32 32 30 28 27 26 24 24 22 21 21 20 21 20 21 25 32 31 30 30 30 31 30 30 32 32 36 36 37

GFSCGP_sfc_temp_165.txt.gz
Temp
49 44 40 45 47 46 44 45 44 47 52 49 48 48 51 56 56 55 58 57 59 60 66 66 64 65 64 65 64 64 63 65 64 62 61 62 61 62 62 64 64 64 64 63
44 40 47 48 47 45 45 42 41 46 52 47 45 46 51 53 55 58 60 61 60 62 62 64 64 63 64 64 65 65 65 65 64 64 64 65 64 64 64 64 64 64 64 64
42 45 51 48 46 43 43 42 43 44 47 47 44 44 48 53 57 58 60 62 64 62 64 65 62 63 65 64 64 66 65 65 65 65 65 63 63 61 61 62 62 62 64 64
43 50 46 44 43 46 39 48 47 43 41 37 45 35 45 49 52 52 55 58 61 63 65 68 66 64 65 66 67 66 66 65 65 65 64 63 63 61 64 64 65 63 63 63
40 42 42 41 44 48 43 49 46 44 40 39 40 36 41 49 49 53 54 59 61 63 64 67 68 67 66 66 66 66 66 65 65 64 66 64 64 65 66 65 64 64 62 63
41 46 47 45 49 49 49 45 44 43 41 32 40 39 42 47 50 54 57 60 61 62 63 66 69 67 66 65 64 66 65 65 65 64 65 64 64 64 64 63 63 65 64 62
41 41 44 49 43 47 46 41 32 30 30 31 38 37 42 48 53 52 56 59 60 60 62 64 64 62 64 60 63 64 63 63 64 64 64 65 64 65 64 63 63 62 62 63
34 31 41 45 44 40 41 41 33 27 26 28 35 32 39 50 56 59 56 58 58 56 57 57 59 62 63 61 62 63 63 63 63 63 63 65 66 65 65 65 65 64 63 64
31 31 42 45 45 46 40 37 43 35 26 27 33 36 44 48 51 52 54 55 55 56 59 57 59 57 58 59 59 61 62 63 63 63 63 63 65 64 64 65 64 64 64 63
40 33 39 41 46 46 41 44 35 35 27 25 30 31 37 45 52 56 54 53 55 55 55 56 56 56 57 56 58 59 62 62 63 63 63 63 63 64 64 64 62 63 63 62
42 37 36 40 39 40 39 38 39 38 34 29 23 33 41 48 50 51 52 52 52 53 53 54 55 56 54 52 52 55 58 60 60 61 62 62 61 62 63 62 62 61 62 61
42 35 32 36 41 45 46 39 39 33 29 31 28 36 47 46 49 49 52 54 53 51 51 51 51 51 51 52 50 51 53 56 59 59 60 60 60 61 61 61 61 61 61 60
43 33 29 31 36 39 39 43 44 42 37 30 28 36 46 47 48 49 49 51 52 52 52 52 51 50 51 51 50 49 50 53 54 56 58 58 58 58 60 61 61 60 60 60
46 35 33 29 32 37 36 40 43 42 33 35 35 39 46 50 51 52 56 51 52 53 53 52 51 51 50 49 49 49 49 50 50 52 55 55 57 58 60 60 60 60 60 60
39 28 34 36 34 37 36 38 41 38 40 35 40 40 46 51 49 53 55 51 52 53 55 58 51 50 50 48 48 47 47 47 48 49 51 53 52 52 53 54 55 57 58 59
39 32 33 31 35 37 33 36 37 41 39 39 40 40 51 53 54 50 53 55 53 51 53 55 52 51 49 47 47 46 46 46 45 46 47 47 47 47 47 48 48 49 50 52
36 33 31 26 31 32 27 34 38 37 43 43 36 44 51 48 48 49 51 53 54 56 55 54 54 51 49 47 47 46 46 45 45 45 44 44 44 43 43 43 43 41 43 46
33 33 30 24 23 16 32 36 40 38 41 44 45 47 50 50 51 51 54 50 53 55 54 53 53 52 50 47 46 46 45 44 43 43 43 42 42 42 41 40 40 41 41 42
38 31 27 20 20 25 34 33 35 33 36 43 44 47 49 50 45 49 55 55 55 56 58 55 53 51 50 48 46 45 43 42 42 42 41 41 40 38 38 37 37 35 35 35
33 33 24 23 12 9 28 36 38 40 30 40 43 45 45 44 38 47 55 55 53 53 53 49 49 47 46 43 42 42 41 40 41 40 40 39 35 35 36 36 35 33 34 34
24 28 21 18 9 20 32 35 40 26 29 34 39 38 36 37 42 44 46 48 50 48 47 46 46 45 42 38 38 40 39 40 35 34 34 33 35 35 37 36 34 35 35 35
24 20 15 16 14 15 35 35 33 30 32 31 30 33 31 34 37 40 40 40 41 41 40 40 39 36 33 34 36 38 38 32 33 34 33 33 33 33 34 35 34 34 35 35
21 27 21 27 27 34 33 32 28 29 29 29 28 29 28 30 32 32 34 35 33 31 31 31 32 30 29 30 32 33 31 32 32 33 33 33 33 33 34 34 34 34 34 35
29 31 27 29 32 34 34 27 28 28 27 28 28 27 27 27 28 29 31 30 28 27 27 27 28 27 26 27 28 29 30 31 33 33 33 33 33 33 33 34 34 34 34 34
29 31 27 27 30 31 28 26 25 26 27 26 27 27 26 26 27 27 27 26 27 26 25 25 24 25 24 25 26 26 29 32 32 32 32 33 33 33 33 33 33 33 33 34
27 29 29 26 24 27 27 24 24 22 22 24 23 24 27 27 26 25 26 26 24 23 23 23 23 22 22 23 23 23 26 31 32 30 31 32 33 33 33 33 33 36 36 37

GFSCGP_sfc_temp_168.txt.gz
Temp
53 46 42 48 53 56 55 50 50 56 61 56 55 57 62 66 67 67 68 71 71 73 77 77 78 78 75 74 73 73 72 71 72 70 69 67 64 65 67 71 72 72 73 72
45 41 53 55 55 52 51 49 49 53 55 55 55 55 61 64 64 67 68 70 72 74 75 76 76 76 74 74 73 72 72 72 73 73 72 72 71 71 70 70 71 73 73 72
45 49 53 50 50 47 49 45 47 49 55 54 51 50 56 64 66 67 68 71 72 72 73 73 74 74 74 73 73 72 71 73 73 73 73 72 73 70 67 69 70 72 72 72
47 55 50 49 47 49 42 53 51 49 46 38 54 40 54 61 63 67 67 69 70 72 72 71 74 76 76 75 72 72 73 73 72 73 72 69 68 65 67 68 71 71 71 72
45 47 47 45 48 52 48 55 50 48 44 41 45 38 50 60 58 63 67 70 72 73 74 73 72 73 76 75 73 74 74 73 72 71 72 70 69 69 70 69 69 70 70 71
51 52 54 52 53 53 54 50 48 45 39 32 42 40 47 55 59 63 68 71 72 74 74 73 73 72 72 74 72 74 74 74 71 70 69 68 67 67 67 69 68 70 70 67
45 46 50 53 48 51 48 41 32 31 30 34 47 41 48 58 62 63 66 70 71 71 72 71 70 69 69 69 70 73 73 72 72 70 69 69 68 69 70 70 70 69 69 68
36 33 45 51 49 46 44 43 36 30 33 40 42 38 50 59 63 67 68 68 65 67 70 69 69 69 70 69 68 72 71 71 72 70 69 69 70 70 71 72 72 72 71 70
35 37 49 51 53 52 43 37 45 35 32 31 43 49 55 58 60 64 64 64 64 66 68 68 67 65 66 68 69 68 70 70 71 71 70 70 70 70 70 71 73 72 73 70
46 37 46 48 51 52 50 53 37 36 29 29 42 44 47 55 61 66 63 63 63 62 64 66 65 62 63 64 66 67 69 69 69 71 71 70 70 71 71 71 70 70 71 71
48 42 39 44 40 42 40 38 44 45 39 33 33 43 61 60 62 61 63 61 61 59 62 65 65 62 61 59 60 61 62 65 67 68 69 69 69 69 70 69 69 69 70 70
49 38 34 39 49 53 50 45 44 36 31 35 36 41 57 59 61 61 61 60 60 59 62 66 66 61 62 57 56 59 60 62 65 68 68 68 69 69 68 68 69 69 68 69
44 35 30 32 36 40 42 47 47 45 38 33 32 43 57 58 61 61 60 62 61 62 63 66 68 63 60 59 57 55 58 60 62 65 66 67 67 67 67 67 67 66 65 66
48 39 35 35 38 40 35 42 43 41 33 37 37 45 54 57 58 61 63 63 64 62 61 62 66 65 62 57 60 55 56 60 60 61 62 63 65 66 65 65 65 64 63 63
44 33 36 41 39 39 39 39 42 38 39 36 45 46 53 57 58 60 61 61 61 61 61 61 62 64 65 59 60 57 52 53 57 57 59 61 63 63 63 62 62 61 60 60
41 33 35 32 41 40 34 38 42 43 44 43 45 43 56 59 59 58 60 60 58 59 60 61 62 62 61 58 56 55 54 53 50 51 53 56 57 55 56 56 56 56 56 57
38 33 32 30 34 33 30 36 39 43 46 45 39 48 56 55 56 57 58 59 58 59 60 61 62 62 62 60 56 56 54 52 51 52 50 52 52 51 50 50 49 47 49 50
35 34 33 31 30 24 39 45 47 43 47 50 50 52 55 55 57 58 59 58 57 58 59 61 62 63 63 59 55 54 52 51 49 49 49 49 48 49 47 46 46 44 44 44
43 36 30 28 27 33 41 43 42 40 42 48 48 50 52 54 53 55 53 52 51 51 53 54 58 59 60 59 55 51 48 48 47 46 45 44 44 43 42 39 41 39 40 38
36 38 33 27 24 23 38 44 46 46 35 43 45 44 43 49 45 53 50 48 47 47 46 46 49 52 52 52 49 47 45 45 45 43 43 42 38 39 39 39 37 34 35 35
30 30 29 28 26 30 41 44 46 33 38 41 41 41 40 41 46 47 45 44 45 43 41 42 42 43 39 40 41 42 43 43 40 38 36 36 38 37 39 37 35 36 35 35
29 28 28 27 25 23 43 43 40 40 39 37 35 37 34 37 38 41 40 40 40 38 37 36 36 37 35 35 37 39 40 35 35 35 35 35 35 35 36 36 35 35 37 36
29 37 31 34 34 41 41 38 34 35 35 34 33 33 32 33 34 35 35 36 36 33 32 33 33 34 33 31 32 34 33 34 33 33 33 33 34 34 34 35 35 36 36 37
33 38 35 34 39 40 39 32 32 32 31 31 31 30 31 30 30 29 30 31 30 30 29 29 30 29 29 29 30 30 32 33 33 33 33 33 33 33 33 34 35 36 36 36
37 37 33 33 37 37 31 30 29 29 29 28 29 28 28 29 29 28 27 28 29 28 28 27 26 27 27 27 28 28 29 32 33 33 33 33 34 33 33 33 35 34 34 37
35 35 36 34 35 37 31 27 26 26 26 26 25 26 27 28 27 27 27 28 27 26 25 24 25 24 25 25 25 25 25 27 32 33 33 33 33 33 33 33 33 36 36 37

GFSCGP_sfc_temp_171.txt.gz
Temp
56 48 45 52 55 58 58 56 55 60 65 59 59 59 63 68 70 70 72 73 75 77 82 84 83 83 82 81 80 79 76 75 74 72 70 70 66 65 66 68 71 73 73 73
49 44 56 59 59 55 55 53 53 58 61 57 56 56 62 66 67 69 71 72 74 76 80 82 83 82 80 79 78 78 77 75 74 73 72 72 71 69 69 68 69 71 73 74
46 52 57 55 53 50 49 48 50 52 58 60 56 52 57 65 68 70 72 73 75 75 77 80 81 83 82 80 78 77 77 75 74 74 74 73 74 72 70 68 68 71 73 73
49 58 52 51 49 52 45 56 54 51 46 40 57 41 55 62 64 68 71 74 76 77 78 79 79 80 81 80 80 79 77 76 74 75 74 72 70 68 70 70 70 70 72 72
48 50 49 46 49 54 49 57 53 51 48 47 49 42 52 62 60 65 70 73 76 78 78 79 79 80 81 80 79 78 77 75 74 73 75 73 71 72 72 72 69 70 70 72
53 58 56 54 56 56 57 52 51 49 42 32 44 43 48 57 62 66 71 74 75 77 78 79 80 79 79 79 78 77 76 77 74 74 74 73 71 71 71 69 68 68 70 69
48 48 55 56 50 55 52 46 32 30 30 33 52 43 50 61 65 67 68 72 74 77 75 74 74 75 76 76 75 75 76 75 77 74 73 73 72 71 71 70 69 68 67 68
38 36 49 54 52 47 46 45 36 29 32 39 49 40 50 64 68 68 70 72 71 71 74 73 72 72 72 72 74 74 73 74 76 76 72 73 72 71 72 72 71 69 69 69
40 41 54 55 55 55 46 39 50 39 37 33 44 51 59 63 63 66 68 70 69 70 70 71 71 70 70 69 70 72 71 72 73 74 73 71 71 71 71 71 72 72 72 71
48 39 51 52 55 55 51 53 36 35 28 28 41 45 49 57 62 67 68 67 68 69 70 70 71 71 69 68 68 68 69 69 71 71 73 71 71 70 71 71 70 71 72 72
49 46 42 48 42 43 45 43 44 44 38 34 34 45 62 62 65 64 66 65 66 66 67 70 70 71 71 68 66 65 66 65 67 69 70 70 70 70 70 70 70 71 71 72
50 42 36 40 51 53 51 47 47 38 36 40 39 41 64 63 64 64 64 64 66 67 69 70 69 69 71 70 70 65 64 61 63 66 68 68 69 69 69 69 70 71 70 71
49 36 31 33 41 45 43 47 49 48 46 36 33 42 62 65 65 66 65 66 67 68 69 68 68 67 69 70 68 68 63 61 61 62 65 65 66 67 68 69 69 69 69 69
51 41 37 34 39 44 36 43 48 45 35 37 40 45 55 61 61 64 65 65 66 66 66 66 67 67 67 67 69 67 66 63 60 60 63 61 64 65 67 68 68 68 68 67
48 33 41 44 46 44 41 37 41 41 41 37 45 47 53 58 61 64 64 63 63 63 64 65 64 64 66 65 66 66 64 60 55 56 58 60 63 64 66 65 65 64 63 63
48 32 37 34 43 44 35 41 42 40 39 41 45 44 57 61 63 61 61 62 60 61 62 61 61 62 63 63 64 62 62 59 53 53 53 54 56 57 58 59 57 56 56 57
41 34 32 31 38 36 29 37 43 44 46 46 38 49 57 57 58 59 59 59 57 56 55 55 55 56 57 60 62 61 61 57 52 50 50 50 51 51 51 52 51 50 52 53
37 34 33 31 31 24 41 50 51 47 48 52 52 54 56 57 58 59 56 53 52 52 51 51 50 50 52 56 58 59 56 54 49 49 48 48 48 49 47 46 45 45 44 46
47 39 32 29 30 37 43 45 44 43 44 53 51 54 56 53 54 54 53 51 49 49 48 47 47 47 50 50 47 49 50 49 47 46 46 44 43 42 42 41 43 40 40 39
39 44 35 29 27 26 41 47 51 51 35 49 50 48 47 50 46 52 49 49 47 47 45 43 43 45 45 42 42 43 45 45 44 40 40 40 39 40 40 38 38 36 37 36
31 32 30 32 29 33 45 45 51 34 38 46 47 45 45 45 46 45 46 45 45 44 41 40 40 39 40 38 37 38 42 38 37 36 36 36 36 37 38 37 35 35 35 35
33 30 30 31 28 26 47 44 41 44 43 42 41 41 39 40 40 41 41 40 40 38 37 35 34 34 37 35 33 34 35 36 37 35 35 35 34 35 35 35 34 34 35 35
33 41 36 37 36 43 45 40 39 41 42 37 39 37 36 35 37 37 35 36 36 35 33 33 31 32 34 33 31 29 31 33 33 33 33 34 34 34 34 34 34 35 36 36
37 44 37 36 42 43 40 37 37 38 37 35 34 33 33 33 34 32 32 33 33 33 31 30 29 28 28 30 30 30 30 31 32 33 33 34 34 34 33 33 34 35 36 36
40 39 35 35 39 38 37 39 36 33 32 31 31 31 31 31 31 31 30 30 31 31 30 29 27 26 26 28 28 29 28 27 29 32 33 33 34 33 33 33 34 33 33 35
39 39 37 36 41 41 36 34 32 32 31 30 28 28 30 29 28 28 27 29 29 28 27 26 25 24 24 25 25 26 25 24 25 30 33 33 33 33 32 33 33 36 36 37

GFSCGP_sfc_temp_174.txt.gz
Temp
52 46 43 49 52 53 52 50 48 54 61 52 52 54 58 62 62 62 63 65 66 69 73 74 74 74 73 72 72 74 73 72 70 69 67 67 66 66 66 66 68 69 69 67
47 42 52 55 55 51 50 47 47 55 57 52 51 51 57 60 61 63 63 64 66 67 69 72 72 72 71 71 71 73 74 73 71 70 69 68 68 66 66 66 66 67 68 67
43 49 55 53 51 49 49 47 47 46 53 53 49 46 51 59 62 64 65 66 68 68 68 69 70 70 70 69 71 73 74 73 72 71 70 67 66 63 63 63 64 65 67 68
46 53 51 48 47 50 43 53 52 49 45 35 48 33 47 54 57 59 62 62 64 66 70 72 71 69 70 70 71 72 73 73 72 71 69 67 65 63 64 64 65 64 66 68
44 47 47 45 48 52 46 53 51 49 44 43 41 37 42 51 51 56 59 62 64 66 67 67 68 69 70 70 68 69 73 72 72 70 70 67 66 67 68 67 65 64 66 67
48 56 53 50 53 53 54 50 48 45 40 30 38 39 38 47 53 54 59 61 64 64 65 64 67 68 67 67 67 66 68 72 71 70 69 68 67 67 66 66 65 65 65 66
45 46 50 54 49 52 50 42 26 28 28 27 44 37 43 52 57 57 59 61 61 62 62 63 62 62 63 62 63 65 66 68 71 70 69 69 69 68 67 67 66 65 64 64
35 31 46 51 47 44 45 42 31 24 26 29 42 32 42 56 60 62 61 62 62 60 60 60 61 61 61 61 61 62 63 65 68 70 69 70 70 70 69 69 68 67 66 66
36 36 50 51 51 50 43 37 46 35 31 29 35 42 51 56 56 57 58 59 61 59 60 59 58 60 60 59 59 59 60 62 64 66 70 69 70 69 69 69 70 69 68 67
46 34 48 49 50 50 47 48 35 35 24 21 31 33 40 49 54 57 57 57 59 58 58 60 60 60 60 60 58 58 59 59 61 62 65 68 69 69 69 70 68 68 69 68
47 40 41 47 41 41 43 40 40 41 34 27 25 33 51 54 55 53 55 56 56 53 57 58 59 59 59 58 58 57 56 56 57 59 61 62 65 67 68 68 68 68 68 69
48 40 33 38 48 50 48 44 42 32 28 32 31 34 54 53 55 55 55 58 54 55 58 58 58 58 58 58 58 58 57 55 55 56 58 61 62 62 65 67 68 68 67 67
47 35 24 29 38 42 41 46 47 44 40 31 26 35 53 54 54 55 54 54 56 56 57 57 57 56 56 57 57 57 56 55 54 54 55 56 59 60 64 66 66 67 66 66
49 36 32 30 33 39 35 40 43 41 34 35 35 39 48 51 53 56 56 54 53 54 56 55 54 54 55 56 56 55 56 55 55 53 53 53 57 59 62 64 65 65 65 64
46 31 37 40 41 40 37 36 39 37 40 34 40 41 47 49 52 53 55 53 54 54 53 52 52 51 52 52 54 56 56 53 52 50 50 51 55 56 58 58 59 60 60 61
45 32 31 28 40 40 31 39 40 40 40 41 41 41 54 51 53 54 54 53 51 50 50 50 50 49 48 48 49 52 52 52 49 47 47 48 50 52 53 55 56 56 56 56
41 32 31 24 34 30 25 35 39 40 43 38 34 41 50 50 52 52 51 49 48 47 47 47 46 45 44 45 47 43 45 49 47 45 45 45 46 47 48 51 51 50 52 53
38 32 32 20 26 22 35 46 45 42 44 47 47 48 50 51 51 47 46 45 45 45 44 43 42 41 42 43 41 41 42 45 44 42 42 42 42 44 45 45 45 46 46 48
45 37 30 25 20 29 37 40 39 38 39 48 47 50 50 48 47 42 45 45 43 42 42 40 40 39 40 39 37 36 39 40 38 36 36 36 36 36 38 39 40 41 41 41
37 42 34 29 22 16 30 39 46 45 31 45 46 45 45 45 38 39 42 42 41 40 39 37 36 37 36 35 34 33 35 34 32 33 33 34 34 34 35 37 37 34 35 35
31 32 29 29 20 26 37 40 44 27 32 41 43 42 41 39 38 39 41 39 39 37 36 35 33 32 33 32 30 30 31 30 32 33 33 34 34 35 35 36 34 34 34 34
31 29 28 30 26 23 40 38 36 38 37 38 38 37 36 36 36 37 36 35 35 33 32 31 29 29 30 30 30 29 29 31 32 33 34 34 34 34 35 34 34 34 34 34
29 35 30 32 30 37 36 34 34 38 35 34 35 33 33 32 33 33 32 31 31 30 30 29 27 27 29 28 29 28 29 30 29 30 33 34 34 34 34 33 34 34 34 34
31 37 30 33 35 36 35 33 33 34 32 32 32 31 30 29 30 29 29 29 28 29 28 27 26 26 25 26 27 28 28 27 26 28 31 34 34 34 34 33 33 34 34 34
32 36 29 29 31 31 31 32 31 30 29 29 29 29 28 27 28 28 27 27 27 27 26 25 23 23 22 23 23 25 26 24 24 26 29 33 34 33 33 33 34 33 33 34
33 32 31 28 34 34 31 31 31 28 28 28 27 26 27 27 26 25 24 25 25 23 23 22 20 19 19 19 19 20 22 22 21 23 27 30 32 33 32 32 31 35 36 37